Погода в Бушулее

Россия / Забайкальский край     52°44′38″N   117°16′27″E
темп.,
°C
ветер,
м/с
пор.,
м/с
влажн.,
%
обл.,
%
осадки,
мм/ч
давл.,
гПа
погр.,
м
8 марта, пн
пн800:00−16юз119717 0.0 102120
03:00−16юз1110039 0.0 102020
06:00−16ююз129993 0.0 101722
09:00−13юз249796 0.1 1016181
12:00−9юз3595100 0.1 1012307
15:00−5юз4792100 0.1 1010436
18:00−3зсз6146762 0.4 10101445
21:00−9сз4137543 0.5 1015487
9 марта, вт
вт900:00−13зсз3108010 0.0 1020212
03:00−16сз23785 0.0 102547
06:00−18сз22800 0.0 102820
09:00−17зюз11830 0.0 103126
12:00−10ююз237514 0.0 1028296
15:00−9ююз377523 0.0 1024451
18:00−9юз28860 0.0 1022427
21:00−14юз129320 0.0 102220
10 марта, ср
ср1000:00−14юз2288100 0.0 102031
03:00−15юз2291100 0.0 102038
06:00−17юз129668 0.0 102120
09:00−15юз229640 0.0 102276
12:00−5з27794 0.0 1021670
15:00−3сз48632 0.0 10211635
18:00−4зсз277828 0.0 1023297
21:00−11з118118 0.0 102621
11 марта, чт
чт1100:00−13ююз12850 0.0 102820
03:00−14ююз12890 0.0 102820
06:00−16ююз12930 0.0 102820
09:00−13юз22933 0.0 102787
12:00−7юз24876 0.0 1025320
15:00−4юз238820 0.0 1023377
18:00−5ююз249569 0.0 1023263
21:00−11ююз129757 0.0 102521
12 марта, пт
пт1200:00−11ююз229766 0.0 102629
03:00−12ююз229869 0.0 102523
06:00−13юз229986 0.0 102524
09:00−10юз269789 0.1 1024204
12:00−5юз498754 0.0 1020386
15:00−2юз5128332 0.0 1017519
18:00−3юз5148618 0.0 1015610
21:00−4юз4168758 0.0 1016503